Regional Weather Roundup
Issued by NWS

Home | Current Version | Previous Version | Graphics & Text | Print | Product List | Glossary On
Versions: 1 2 3 4 5 6 7 8 9 10 11 12 13 14 15 16 17 18 19 20 21 22 23 24 25 26 27 28 29 30 31 32 33 34 35 36 37 38 39 40 41 42 43 44 45 46 47 48 49 50
000
ASUS45 KPSR 042310
RWRAZ

ARIZONA HOURLY REGIONAL WEATHER ROUNDUP
NATIONAL WEATHER SERVICE PHOENIX AZ
400 PM MST FRI SEP 04 2015

NOTE: FAIR INDICATES FEW OR NO CLOUDS BELOW 12,000 FEET WITH NO
SIGNIFICANT WEATHER AND/OR OBSTRUCTIONS TO VISIBILITY.

AZZ001>003-036-050000-
NORTHWEST ARIZONA

CITY           SKY/WX    TMP DP  RH WIND       PRES   REMARKS
BULLHEAD CITY  FAIR      99  50  19 S22G29    29.66F
KINGMAN        FAIR      89  45  21 SW25G33   29.88F
$$

AZZ004>008-015-016-018-050000-
NORTH CENTRAL ARIZONA

CITY           SKY/WX    TMP DP  RH WIND       PRES   REMARKS
GRAND CANYON   PTSUNNY   71  45  39 S14G23    30.08F
WILLIAMS       FAIR      68  52  56 S8        30.16F
PRESCOTT       FAIR      79  49  34 S16       30.02S
FLAGSTAFF      FAIR      64  48  56 W3        30.15F
PAYSON         FAIR      77  54  44 S8G14     30.05F
PAGE           FAIR      88  39  17 S8        29.86F
$$

AZZ009>014-017-050000-
NORTHEAST ARIZONA

CITY           SKY/WX    TMP DP  RH WIND       PRES   REMARKS
WINSLOW        FAIR      81  54  39 E7        30.00S
SAINT JOHNS    PTSUNNY   73  55  53 SW7       30.07S
WINDOW ROCK    FAIR      65  56  72 CALM      30.14F
SHOW LOW       FAIR      68  52  56 S15       30.14S
$$

AZZ023-050000-
GREATER PHOENIX AREA

CITY           SKY/WX    TMP DP  RH WIND       PRES   REMARKS
PHOENIX        PTSUNNY   94  58  29 SE12G21   29.76S
BUCKEYE        FAIR      93  57  29 SE5       29.75S
GLENDALE       PTSUNNY   97  57  26 E9        29.77F
LUKE AFB       FAIR      95  58  29 SE7       29.74F
DEER VALLEY    FAIR      94  57  28 S5        29.77F
SCOTTSDALE     FAIR      93  58  30 SE12      29.80F
MESA-FALCON    PTSUNNY   93  57  29 S9        29.78F
MESA-GATEWAY   PTSUNNY   93  59  31 S8        29.82S
CHANDLER       PTSUNNY   93  57  29 SE14      29.79F
$$

AZZ027-028-050000-
SOUTHWEST MARICOPA COUNTY AND PINAL COUNTY

CITY           SKY/WX    TMP DP  RH WIND       PRES   REMARKS
CASA GRANDE    FAIR      90  61  37 S8        29.80S
GILA BEND      FAIR      86  64  48 NE3       29.76F
$$

AZZ503-504-507>509-050000-
SOUTHEAST ARIZONA

CITY           SKY/WX    TMP DP  RH WIND       PRES   REMARKS
TUCSON         PTSUNNY   82  63  52 S9        29.93F
DAVIS-MONTHAN  FAIR      80  64  57 S6        29.92F
RYAN FIELD     SUNNY     82  64  54 E10       29.91F
NOGALES        LGT RAIN  69  63  81 E3        30.03S
SIERRA VISTA   CLOUDY    70  62  74 S7        30.08S
DOUGLAS        CLOUDY    75  59  57 S3        30.03S
SAFFORD        FAIR      82  58  43 SE7       29.94F
$$

AZZ020-021-025-026-031-050000-
SOUTHWEST ARIZONA

CITY           SKY/WX    TMP DP  RH WIND       PRES   REMARKS
YUMA           FAIR     101  57  23 S14G22    29.68F HX 100
$$

CAZ031-033-041-043-047-048-061-050000-
SOUTHERN CALIFORNIA

CITY           SKY/WX    TMP DP  RH WIND       PRES   REMARKS
DOWNTOWN L.A.  FAIR      76  56  49 VRB6      29.83F
L.A. AIRPORT   FAIR      74  57  55 W12       29.84F
SAN DIEGO      FAIR      75  58  55 W8        29.86F
BURBANK        FAIR      77  55  46 S9G17     29.83F
ONTARIO        FAIR      82  51  34 W8        29.82F
RIVERSIDE      FAIR      83  54  36 W10       29.81F
PALM SPRINGS   FAIR      96  49  20 NW16      29.70F
EL CENTRO NAS  FAIR     101  55  21 NW8       29.66F
IMPERIAL       FAIR     101  57  23 W7        29.64F HX 100
BLYTHE         FAIR     100  55  22 S14G23    29.67F
NEEDLES        FAIR     101  50  18 SW16G30   29.69F
$$

NVZ020-UTZ003-050000-
SOUTHERN NEVADA-UTAH

CITY           SKY/WX    TMP DP  RH WIND       PRES   REMARKS
LAS VEGAS      FAIR      94  45  18 S12G24    29.67F
SALT LAKE CITY PTSUNNY   88  32  13 S29G37    29.72F
$$

NMZ009-TXZ055-050000-
NEW MEXICO-WEST TEXAS

CITY           SKY/WX    TMP DP  RH WIND       PRES   REMARKS
ALBUQUERQUE    CLOUDY    69  58  67 S5        30.13F
EL PASO        PTSUNNY   89  49  25 VRB3      29.96F
$$


........................KEY........................
SKY/WX - SKY CONDITION/WEATHER
TMP    - TEMPERATURE IN FAHRENHEIT
DP     - DEW POINT IN FAHRENHEIT
RH     - RELATIVE HUMIDITY IN PERCENT
WIND   - DIRECTION AND SPEED IN MILES PER HOUR (MPH)
VRB    - VARIABLE WIND DIRECTION
PRES   - MEAN SEA LEVEL PRESSURE IN INCHES OF MERCURY
         F - FALLING PRESSURE   R - RISING PRESSURE
         S - STEADY PRESSURE
VSB    - VISIBILITY IN MILES
HX     - HEAT INDEX IN FAHRENHEIT
WCI    - WIND CHILL INDEX IN FAHRENHEIT
TC     - TEMPERATURE IN CELSIUS WHICH IS ALSO KNOWN AS
         TEMPERATURE IN CENTIGRADE
AFB    - AIR FORCE BASE
         LUKE AFB IS LUKE AIR FORCE BASE
         DAVIS-MONTHAN IS DAVIS-MONTHAN AIR FORCE BASE
NAS    - NAVAL AIR STATION
         EL CENTRO NAS IS EL CENTRO NAVAL AIR STATION
N/A    - NOT AVAILABLE



USA.gov is the U.S. government's official web portal to all federal, state and local government web resources and services.